Regional Weather Roundup
Issued by NWS

Home | Current Version | Previous Version | Text Only | Print | Product List | Glossary Off
Versions: 1 2 3 4 5 6 7 8 9 10 11 12 13 14 15 16 17 18 19 20 21 22 23 24 25 26 27 28 29 30 31 32 33 34 35 36 37 38 39 40 41 42 43 44 45 46 47 48 49 50

000
ASUS43 KDTX 161810
RWRMI
MICHIGAN HOURLY REGIONAL WEATHER ROUNDUP
NATIONAL WEATHER SERVICE DETROIT/PONTIAC MI
200 PM EDT TUE SEP 16 2014

NOTE: "FAIR" INDICATES FEW OR NO CLOUDS BELOW 12,000 FEET WITH NO
SIGNIFICANT WEATHER AND/OR OBSTRUCTION TO VISIBILITY.

MIZ047>049-052>055-059>063-066>070-074>076-081>083-161900-
SOUTHEAST LOWER MICHIGAN

CITY           SKY/WX    TMP DP  RH WIND       PRES   REMARKS
ADRIAN         PTSUNNY   62  43  49 VRB3      30.15F
6HR MIN TEMP:  50; 6HR MAX TEMP:  64;

ALMA           PTSUNNY   63  45  53 W8G16     30.13F
ANN ARBOR      MOSUNNY   64  43  46 VRB6      30.13F
BAD AXE        PTSUNNY   62  47  58 W6G16     30.11F
6HR MIN TEMP:  38; 6HR MAX TEMP:  62;

DETROIT CITY   PTSUNNY   67  41  38 N6        30.13F
6HR MIN TEMP:  52; 6HR MAX TEMP:  67;

DETROIT        MOSUNNY   65  42  43 W8        30.13F
6HR MIN TEMP:  50; 6HR MAX TEMP:  65;

FLINT          MOSUNNY   64  45  49 W9        30.13F
6HR MIN TEMP:  49; 6HR MAX TEMP:  64;

GROSSE ILE     PTSUNNY   64  48  55 S6        30.12F
HILLSDALE      MOSUNNY   63  40  42 W6        30.14F
6HR MIN TEMP:  50; 6HR MAX TEMP:  63;

HOWELL         MOSUNNY   62  40  43 NW3       30.13F
6HR MIN TEMP:  48; 6HR MAX TEMP:  62;


CITY           SKY/WX    TMP DP  RH WIND       PRES   REMARKS
JACKSON        MOSUNNY   63  40  42 W7        30.14F
6HR MIN TEMP:  50; 6HR MAX TEMP:  64;

LAMBERTVILLE   MOSUNNY   64  45  48 CALM      30.14F
LANSING        PTSUNNY   60  45  57 SW7       30.14F
6HR MIN TEMP:  46; 6HR MAX TEMP:  62;

LAPEER         NOT AVBL
MASON          MOSUNNY   60  44  53 CALM      30.14F
MONROE         PTSUNNY   64  46  52 W3        30.12F
MT. CLEMENS    MOSUNNY   64  42  45 CALM      30.11F
6HR MIN TEMP:  48; 6HR MAX TEMP:  65;

PONTIAC        MOSUNNY   62  41  46 SW6       30.12F
6HR MIN TEMP:  49; 6HR MAX TEMP:  63;

PORT HOPE        N/A     62  45  53 W5        30.09F
6HR MIN TEMP:  48; 6HR MAX TEMP:  62;

PORT HURON     MOSUNNY   63  46  55 NW7       30.12F
TRI CITIES     MOSUNNY   63  49  60 W10       30.12F
6HR MIN TEMP:  44; 6HR MAX TEMP:  64;

YPSILANTI      MOSUNNY   68  41  37 CALM      30.14F
6HR MIN TEMP:  51; 6HR MAX TEMP:  68;

$$
MIZ043>046-050>051-056>058-064>065-071>073-077>080-161900-
SOUTHWEST LOWER MICHIGAN

CITY           SKY/WX    TMP DP  RH WIND       PRES   REMARKS
BATTLE CREEK   PTSUNNY   62  46  55 W9        30.15F
6HR MIN TEMP:  47; 6HR MAX TEMP:  63;

BENTON HARBOR  MOSUNNY   62  47  57 W7        30.16F
6HR MIN TEMP:  41; 6HR MAX TEMP:  63;

BIG RAPIDS     SUNNY     60  47  62 W7        30.12F
6HR MIN TEMP:  38; 6HR MAX TEMP:  60;

COLDWATER      SUNNY     65  42  43 NW5       30.15F
6HR MIN TEMP:  49; 6HR MAX TEMP:  65;

HOLLAND        MOSUNNY   63  45  51 W7        30.17S
6HR MIN TEMP:  44; 6HR MAX TEMP:  64;

GRAND RAPIDS   PTSUNNY   65  46  50 W12       30.14F
6HR MIN TEMP:  44; 6HR MAX TEMP:  65;

KALAMAZOO      MOSUNNY   64  45  49 SW6       30.16F
6HR MIN TEMP:  43; 6HR MAX TEMP:  64;

MARSHALL       PTSUNNY   61  42  49 SW6       30.14F
MUSKEGON       MOSUNNY   62  39  42 NW10      30.16F
6HR MIN TEMP:  42; 6HR MAX TEMP:  62;

$$
MIZ016>042-161900-
NORTHERN LOWER MICHIGAN

CITY           SKY/WX    TMP DP  RH WIND       PRES   REMARKS
ALPENA         MOSUNNY   62  42  47 W8        30.06F
6HR MIN TEMP:  42; 6HR MAX TEMP:  62;

BEAVER ISLAND  SUNNY     61  46  57 SW12      30.07F
6HR MIN TEMP:  42; 6HR MAX TEMP:  62;

BELLAIRE       MOSUNNY   61  36  39 W5        30.09F
6HR MIN TEMP:  46; 6HR MAX TEMP:  62;

CADILLAC       PTSUNNY   57  44  59 W9        30.10F
CHARLEVOIX     SUNNY     62  45  54 W13G18    30.12S
6HR MIN TEMP:  52; 6HR MAX TEMP:  62;

FRANKFORT      CLEAR     61  42  50 SW9       30.12F
GAYLORD        MOSUNNY   58  36  43 W12       30.09F
6HR MIN TEMP:  41; 6HR MAX TEMP:  58;

GRAYLING       MOSUNNY   60  42  50 SW9       30.10F
6HR MIN TEMP:  42; 6HR MAX TEMP:  60;

HARBOR SPRINGS SUNNY     62  43  49 SW12G17   30.08S
HOUGHTON LAKE  PTSUNNY   58  46  64 W9        30.10F
6HR MIN TEMP:  41; 6HR MAX TEMP:  59;

MANISTEE       SUNNY     59  39  47 W13       30.14S
OSCODA         CLOUDY    61  46  57 W6        30.07F
PELLSTON       MOSUNNY   62  41  46 SW12      30.07F
6HR MIN TEMP:  37; 6HR MAX TEMP:  62;

TRAVERSE CITY  MOSUNNY   62  37  39 W12       30.09F
6HR MIN TEMP:  46; 6HR MAX TEMP:  63;

$$
MIZ007>008-015-161900-
EASTERN UPPER MICHIGAN

CITY           SKY/WX    TMP DP  RH WIND       PRES   REMARKS
KINROSS        MOSUNNY   63  41  45 SW12G20   30.02F
6HR MIN TEMP:  39; 6HR MAX TEMP:  63;

MACKINAC ISLAN SUNNY     59  45  59 W13G21    30.05F
6HR MIN TEMP:  49; 6HR MAX TEMP:  59;

NEWBERRY       SUNNY     62  41  45 SW14G25   30.00F
S. S. MARIE    SUNNY     64  38  38 SW15G21   30.00F
6HR MIN TEMP:  40; 6HR MAX TEMP:  64;

$$
MIZ004>006-011>014-085-161900-
CENTRAL UPPER MICHIGAN

CITY           SKY/WX    TMP DP  RH WIND       PRES   REMARKS
MANISTIQUE     SUNNY     60  49  65 S10G16    30.03F
ESCANABA       SUNNY     64  41  42 SW15G21   30.03F
6HR MIN TEMP:  37; 6HR MAX TEMP:  64;

MENOMINEE      SUNNY     63  43  48 SW13G18   30.07F
6HR MIN TEMP:  39; 6HR MAX TEMP:  63;

SAWYER-GWINN   SUNNY     64  39  39 W14       30.01F
$$
MIZ001>003-009>011-084-161900-
WESTERN UPPER MICHIGAN

CITY           SKY/WX    TMP DP  RH WIND       PRES   REMARKS
IRON MOUNTAIN  SUNNY     65  39  38 W16G22    30.03F
6HR MIN TEMP:  38; 6HR MAX TEMP:  65;

HOUGHTON       MOSUNNY   58  40  51 W22       29.97F
6HR MIN TEMP:  48; 6HR MAX TEMP:  59;

COPPER HARBOR    N/A     62  41  46 VRB5G17   29.94F
6HR MIN TEMP:  53; 6HR MAX TEMP:  64;

IRONWOOD       SUNNY     63  43  48 W17G23    30.01F
6HR MIN TEMP:  45; 6HR MAX TEMP:  63;

$$

ABBREVIATIONS USED IN REMARKS
   TC - TEMPERATURE IN CELSIUS
  WCI - WIND CHILL INDEX
   HX - HEAT INDEX
  VSB - VISIBILITY



USA.gov is the U.S. government's official web portal to all federal, state and local government web resources and services.